This demonstration page uses our WeatherBlox Daily Observations layout. Learn more.

Left ArrowRight Arrow

39.51506, -84.39828

Hourly Observations for February 9, 2017

Temp ( °F °C ) Dew Point ( °F °C ) Humidity (%) Winds ( mph kmh ) Pressure ( in mb ) Visibility ( mi km ) Precip ( " mm )
12:53 am 00:53 Cloudy 28 -2.2 23 -5 81 81 N 16 26 29.95 1014 10 16 0.00 0.00
1:41 am 01:41 Cloudy 26 -3.3 23 -5 88 88 NNW 13 20 30.00 1016 10 16 0.00 0.00
1:53 am 01:53 Cloudy 26 -3.3 23 -5 88 88 NNW 14 22 29.98 1015 10 16 0.00 0.00
2:17 am 02:17 Cloudy 26 -3.3 23 -5 88 88 NW 10 17 30.03 1017 10 16 0.00 0.00
2:51 am 02:51 Cloudy 27 -3 21 -6 80 80 NW 8 13 30.06 1018 10 16 0.00 0.00
2:53 am 02:53 Cloudy 27 -2.8 22 -5.6 81 81 NW 10 17 30.02 1017 10 16 0.00 0.00
3:38 am 03:38 Cloudy 27 -2.8 18 -7.8 69 69 NW 15 24 30.06 1018 10 16 0.00 0.00
3:53 am 03:53 Cloudy 26 -3.3 18 -7.8 71 71 NW 18 30 30.03 1017 10 16 0.00 0.00
4:53 am 04:53 Cloudy 26 -3.3 17 -8.3 69 69 NW 8 13 30.04 1017 10 16 0.00 0.00
5:53 am 05:53 Cloudy 27 -2.8 19 -7.2 72 72 WNW 16 26 30.08 1019 10 16 0.00 0.00
6:19 am 06:19 Cloudy 26 -3.3 17 -8.3 69 69 WNW 12 19 30.15 1021 10 16 0.00 0.00
6:53 am 06:53 Cloudy 25 -3.9 16 -8.9 69 69 W 12 19 30.09 1019 10 16 0.00 0.00
7:53 am 07:53 Cloudy 24 -4.4 16 -8.9 71 71 W 14 22 30.11 1020 10 16 0.00 0.00
8:04 am 08:04 Cloudy 23 -5 15 -9.4 72 72 W 13 20 30.18 1022 10 16 0.00 0.00
8:16 am 08:16 Cloudy 23 -5 15 -9.4 72 72 W 10 17 30.18 1022 10 16 0.00 0.00
8:43 am 08:43 Cloudy 22 -5.6 15 -9.4 75 75 W 17 28 30.18 1022 10 16 0.00 0.00
8:53 am 08:53 Cloudy 22 -5.6 15 -9.4 75 75 WNW 13 20 30.14 1021 10 16 0.00 0.00
9:53 am 09:53 Cloudy with Light Snow 21 -6.1 12 -11.1 68 68 WNW 18 30 30.17 1022 10 16 0.00 0.03
10:53 am 10:53 Cloudy 21 -6.1 11 -11.7 65 65 WNW 17 28 30.22 1023 10 16 0.00 0.03
11:53 am 11:53 Cloudy 21 -6.1 11 -11.7 65 65 NW 16 26 30.25 1024 9 14 0.00 0.03
12:53 pm 12:53 Mostly Cloudy 20 -6.7 8 -13.3 60 60 WNW 18 30 30.26 1025 10 16 0.00 0.03
1:53 pm 13:53 Mostly Sunny 21 -6.1 8 -13.3 57 57 WNW 14 22 30.27 1025 10 16 0.00 0.00
2:53 pm 14:53 Mostly Cloudy 23 -5 10 -12.2 57 57 NW 16 26 30.28 1026 10 16 0.00 0.00
3:53 pm 15:53 Sunny 22 -5.6 7 -13.9 52 52 NW 14 22 30.31 1026 10 16 0.00 0.00
4:53 pm 16:53 Sunny 21 -6.1 7 -13.9 54 54 NW 13 20 30.33 1027 10 16 0.00 0.00
5:53 pm 17:53 Sunny 20 -6.7 5 -15 52 52 WNW 9 15 30.35 1028 10 16 0.00 0.00
6:53 pm 18:53 Clear 18 -7.8 6 -14.4 59 59 WNW 7 11 30.37 1028 10 16 0.00 0.00
7:53 pm 19:53 Clear 17 -8.3 6 -14.4 62 62 WNW 3 6 30.38 1029 10 16 0.00 0.00
8:53 pm 20:53 Clear 17 -8.3 6 -14.4 62 62 Calm 30.39 1029 10 16 0.00 0.00
9:53 pm 21:53 Clear 16 -8.9 6 -14.4 65 65 W 3 6 30.40 1029 10 16 0.00 0.00
10:53 pm 22:53 Clear 14 -10 7 -13.9 73 73 Calm 30.40 1029 10 16 0.00 0.00
11:53 pm 23:53 Clear 15 -9.4 8 -13.3 74 74 Calm 30.40 1030 10 16 0.00 0.00

Powered by AerisWeather